Showing default

ION SCV-004, 50993

Orbit data source: Space-Track

ION SCV-004, 50993 is a payload satellite owned by D-ORBIT (IT) in SSO that was launched on Thu, 13 Jan 2022 UTC via an FALCON 9 launch vehicle from the Air Force Eastern Test Range (AFETR). Payload-class satellites include a variety of spacecraft equipped with specific instruments for various scientific and technological missions. These include communications satellites like Starlink; space stations such as the ISS; scientific satellites like the Hubble; Earth observation satellites from companies like Planet Labs, Umbra, and HawkEye 360; GPS; miniature CubeSats for education and research; and military/defense satellites.

Loading next visibility...
Identifier
50993, 2022-002K
Orbit
SSO
Country
Flag of ITIT
Related business
Manufacturer
D-ORBIT
Mission
Operational Commercial Technology
Bus & Motor
ION-SC, PM200
Mass
220 kg wet, 150 kg dry
Launch date (UTC)
2022-01-13 (4 years ago)
Launch vehicle
FALCON 9
Launch site
Air Force Eastern Test Range (AFETR)
Object type
Payload
Rocket body
Debris
Shape & HBR
Box, 0.2 m
Radar Cross Section
0.240 m², Medium (>0.1 m² and < 1m²)

Expand to show TLE details & history
Last TLE update: 1 day ago

TLE from 1 day ago
0 ION SCV-004
1 50993U 22002K   26072.15658627  .00005986  00000-0  21234-3 0  9992
2 50993  97.2961 131.6324 0006830 348.7054  11.4032 15.29416555230616
Epoch: 2026-03-13T03:45Z
TLE epoch observation values (Epoch: 2026-03-13T03:45:29.053Z)
Latitude
-0.00005°
Longitude
-95.53481°
Altitude
476.071 km
Speed
7.63 km/s
True Right ascension
08h 46m 31s
True Declination
0° 00' 00"
Sunlit
Object was in full shadow at epoch
Visualization orbit readout
Latitude
Unknown
Longitude
Unknown
Altitude
Unknown
Speed
Unknown
Apparent Right ascension
Unknown
Apparent Declination
Unknown
Sunlit
N/A
Visualization observer readout
Local Sidereal Time
09:03:45
Azimuth
Unknown
Elevation
Unknown
Doppler factor
Unknown
Orbital elements
Apogee altitude
479.184 km
Perigee altitude
469.824 km
Semi-major axis
6,852.641 km
Eccentricity
0.00068
Inclination
97.2961°
RAAN
131.6324°
Arg. of periapsis
348.7054°
True anomaly
11.41869°
Mean anomaly
11.4032°
Eccentric anomaly
11.41094°
Mean motion
3.8261 °/min
Orbital period
94.09 mins
BSTAR
0.00021234
Loading maneuver chart data...
Computing Atmospheric mass density...

Documentation

Showing up to 5 results
|